Time,TemperatureF,DewpointF,PressureIn,WindDirection,WindDirectionDegrees,WindSpeedMPH,WindSpeedGustMPH,Humidity,HourlyPrecipIn,Conditions,Clouds,dailyrainin,SoftwareType,DateUTC
2013-05-27 00:12:00,49.7,43.0,30.17,WNW,293,0.0,0.0,77,0.00,,,0.00,weatherlink.com 1.10,2013-05-27 04:12:00,
2013-05-27 00:27:00,49.0,43.0,30.17,WNW,293,0.0,0.0,79,0.00,,,0.00,weatherlink.com 1.10,2013-05-27 04:27:00,
2013-05-27 00:42:00,48.2,43.0,30.17,WNW,293,0.0,0.0,81,0.00,,,0.00,weatherlink.com 1.10,2013-05-27 04:42:00,
2013-05-27 00:57:00,47.5,42.0,30.17,WNW,293,0.0,0.0,81,0.00,,,0.00,weatherlink.com 1.10,2013-05-27 04:57:00,
2013-05-27 01:12:00,47.1,43.0,30.18,WNW,293,0.0,0.0,84,0.00,,,0.00,weatherlink.com 1.10,2013-05-27 05:12:00,
2013-05-27 01:27:00,46.5,42.0,30.18,WNW,293,0.0,0.0,84,0.00,,,0.00,weatherlink.com 1.10,2013-05-27 05:27:00,
2013-05-27 01:42:00,46.1,43.0,30.18,WNW,293,0.0,0.0,87,0.00,,,0.00,weatherlink.com 1.10,2013-05-27 05:42:00,
2013-05-27 01:57:00,45.5,42.0,30.19,WNW,293,0.0,0.0,86,0.00,,,0.00,weatherlink.com 1.10,2013-05-27 05:57:00,
2013-05-27 02:12:00,45.0,42.0,30.19,WNW,293,0.0,0.0,89,0.00,,,0.00,weatherlink.com 1.10,2013-05-27 06:12:00,
2013-05-27 02:27:00,44.5,42.0,30.19,WNW,293,0.0,0.0,89,0.00,,,0.00,weatherlink.com 1.10,2013-05-27 06:27:00,
2013-05-27 02:42:00,44.1,41.0,30.19,WNW,293,0.0,0.0,90,0.00,,,0.00,weatherlink.com 1.10,2013-05-27 06:42:00,
2013-05-27 02:57:00,43.7,41.0,30.20,WNW,293,0.0,0.0,90,0.00,,,0.00,weatherlink.com 1.10,2013-05-27 06:57:00,
2013-05-27 03:12:00,43.3,41.0,30.19,WNW,293,0.0,3.0,90,0.00,,,0.00,weatherlink.com 1.10,2013-05-27 07:12:00,
2013-05-27 03:27:00,43.0,40.0,30.19,WNW,293,0.0,0.0,90,0.00,,,0.00,weatherlink.com 1.10,2013-05-27 07:27:00,
2013-05-27 03:42:00,42.6,40.0,30.19,WNW,293,1.0,2.0,91,0.00,,,0.00,weatherlink.com 1.10,2013-05-27 07:42:00,
2013-05-27 03:57:00,42.7,41.0,30.19,NE,41,0.0,2.0,92,0.00,,,0.00,weatherlink.com 1.10,2013-05-27 07:57:00,
2013-05-27 04:12:00,42.3,40.0,30.19,NE,41,0.0,0.0,91,0.00,,,0.00,weatherlink.com 1.10,2013-05-27 08:12:00,
2013-05-27 04:27:00,42.0,40.0,30.19,NE,35,0.0,0.0,92,0.00,,,0.00,weatherlink.com 1.10,2013-05-27 08:27:00,
2013-05-27 04:42:00,41.8,40.0,30.19,NE,35,0.0,0.0,92,0.00,,,0.00,weatherlink.com 1.10,2013-05-27 08:42:00,
2013-05-27 04:57:00,41.5,39.0,30.20,NE,35,0.0,0.0,92,0.00,,,0.00,weatherlink.com 1.10,2013-05-27 08:57:00,
2013-05-27 05:12:00,41.4,40.0,30.20,NE,36,0.0,0.0,93,0.00,,,0.00,weatherlink.com 1.10,2013-05-27 09:12:00,
2013-05-27 05:27:00,41.1,39.0,30.20,NE,36,0.0,0.0,92,0.00,,,0.00,weatherlink.com 1.10,2013-05-27 09:27:00,
2013-05-27 05:42:00,40.7,39.0,30.20,NE,36,0.0,0.0,93,0.00,,,0.00,weatherlink.com 1.10,2013-05-27 09:42:00,
2013-05-27 05:57:00,40.7,39.0,30.20,NE,36,0.0,0.0,94,0.00,,,0.00,weatherlink.com 1.10,2013-05-27 09:57:00,
2013-05-27 06:12:00,41.2,40.0,30.20,NE,36,0.0,0.0,94,0.00,,,0.00,weatherlink.com 1.10,2013-05-27 10:12:00,
2013-05-27 06:27:00,42.2,40.0,30.20,NE,36,0.0,0.0,93,0.00,,,0.00,weatherlink.com 1.10,2013-05-27 10:27:00,
2013-05-27 06:42:00,43.8,41.0,30.20,NE,36,0.0,0.0,91,0.00,,,0.00,weatherlink.com 1.10,2013-05-27 10:42:00,
2013-05-27 06:57:00,44.5,42.0,30.21,NE,36,0.0,0.0,91,0.00,,,0.00,weatherlink.com 1.10,2013-05-27 10:57:00,
2013-05-27 07:13:00,47.0,43.0,30.22,NE,36,0.0,0.0,87,0.00,,,0.00,weatherlink.com 1.10,2013-05-27 11:13:00,
2013-05-27 07:28:00,49.0,43.0,30.22,NE,36,0.0,0.0,81,0.00,,,0.00,weatherlink.com 1.10,2013-05-27 11:28:00,
2013-05-27 07:43:00,50.1,44.0,30.22,ESE,114,0.0,1.0,79,0.00,,,0.00,weatherlink.com 1.10,2013-05-27 11:43:00,
2013-05-27 07:58:00,52.2,45.0,30.23,ESE,109,1.0,2.0,76,0.00,,,0.00,weatherlink.com 1.10,2013-05-27 11:58:00,
2013-05-27 08:13:00,53.5,45.0,30.23,ENE,71,1.0,1.0,73,0.00,,,0.00,weatherlink.com 1.10,2013-05-27 12:13:00,
2013-05-27 08:28:00,54.5,44.0,30.23,SSE,147,1.0,4.0,69,0.00,,,0.00,weatherlink.com 1.10,2013-05-27 12:28:00,
2013-05-27 08:43:00,56.3,47.0,30.23,East,86,0.0,2.0,71,0.00,,,0.00,weatherlink.com 1.10,2013-05-27 12:43:00,
2013-05-27 08:58:00,57.8,46.0,30.22,ESE,103,0.0,3.0,64,0.00,,,0.00,weatherlink.com 1.10,2013-05-27 12:58:00,
2013-05-27 09:13:00,58.1,46.0,30.22,East,99,0.0,3.0,64,0.00,,,0.00,weatherlink.com 1.10,2013-05-27 13:13:00,
2013-05-27 09:28:00,59.7,47.0,30.22,SE,124,0.0,1.0,64,0.00,,,0.00,weatherlink.com 1.10,2013-05-27 13:28:00,
2013-05-27 09:43:00,61.3,45.0,30.23,ESE,117,0.0,2.0,56,0.00,,,0.00,weatherlink.com 1.10,2013-05-27 13:43:00,
2013-05-27 09:58:00,62.2,44.0,30.23,SE,140,0.0,1.0,52,0.00,,,0.00,weatherlink.com 1.10,2013-05-27 13:58:00,
2013-05-27 10:13:00,64.5,46.0,30.22,SW,227,0.0,2.0,51,0.00,,,0.00,weatherlink.com 1.10,2013-05-27 14:13:00,
2013-05-27 10:28:00,65.7,44.0,30.23,East,90,0.0,3.0,45,0.00,,,0.00,weatherlink.com 1.10,2013-05-27 14:28:00,
2013-05-27 10:43:00,65.3,43.0,30.22,ENE,71,0.0,4.0,45,0.00,,,0.00,weatherlink.com 1.10,2013-05-27 14:43:00,
2013-05-27 10:58:00,66.8,45.0,30.21,SSW,213,0.0,3.0,46,0.00,,,0.00,weatherlink.com 1.10,2013-05-27 14:58:00,
2013-05-27 11:13:00,68.5,46.0,30.21,ENE,76,1.0,4.0,44,0.00,,,0.00,weatherlink.com 1.10,2013-05-27 15:13:00,
2013-05-27 11:28:00,69.0,45.0,30.21,SW,221,2.0,4.0,42,0.00,,,0.00,weatherlink.com 1.10,2013-05-27 15:28:00,
2013-05-27 11:43:00,68.4,46.0,30.20,North,11,0.0,2.0,45,0.00,,,0.00,weatherlink.com 1.10,2013-05-27 15:43:00,
2013-05-27 11:58:00,68.8,46.0,30.20,WNW,297,0.0,3.0,44,0.00,,,0.00,weatherlink.com 1.10,2013-05-27 15:58:00,
2013-05-27 12:13:00,69.2,46.0,30.20,NW,313,1.0,5.0,43,0.00,,,0.00,weatherlink.com 1.10,2013-05-27 16:13:00,
2013-05-27 12:28:00,68.3,44.0,30.20,ESE,117,0.0,2.0,42,0.00,,,0.00,weatherlink.com 1.10,2013-05-27 16:28:00,
2013-05-27 12:43:00,68.2,45.0,30.19,NNW,330,0.0,3.0,43,0.00,,,0.00,weatherlink.com 1.10,2013-05-27 16:43:00,
2013-05-27 12:58:00,68.8,45.0,30.19,NE,53,0.0,2.0,42,0.00,,,0.00,weatherlink.com 1.10,2013-05-27 16:58:00,
2013-05-27 13:13:00,67.9,44.0,30.18,East,98,1.0,2.0,42,0.00,,,0.00,weatherlink.com 1.10,2013-05-27 17:13:00,
2013-05-27 13:28:00,68.0,45.0,30.18,WNW,300,0.0,3.0,44,0.00,,,0.00,weatherlink.com 1.10,2013-05-27 17:28:00,
2013-05-27 13:43:00,68.9,45.0,30.18,NW,310,2.0,3.0,43,0.00,,,0.00,weatherlink.com 1.10,2013-05-27 17:43:00,
2013-05-27 13:58:00,69.1,44.0,30.18,WNW,300,3.0,4.0,40,0.00,,,0.00,weatherlink.com 1.10,2013-05-27 17:58:00,
2013-05-27 14:13:00,68.6,43.0,30.17,WNW,303,2.0,4.0,40,0.00,,,0.00,weatherlink.com 1.10,2013-05-27 18:13:00,
2013-05-27 14:28:00,69.0,45.0,30.17,WNW,299,0.0,3.0,43,0.00,,,0.00,weatherlink.com 1.10,2013-05-27 18:28:00,
2013-05-27 14:44:00,69.5,44.0,30.16,SSW,203,1.0,3.0,40,0.00,,,0.00,weatherlink.com 1.10,2013-05-27 18:44:00,
2013-05-27 14:59:00,68.9,44.0,30.16,SW,228,0.0,4.0,41,0.00,,,0.00,weatherlink.com 1.10,2013-05-27 18:59:00,
2013-05-27 15:14:00,68.0,43.0,30.16,South,188,1.0,4.0,41,0.00,,,0.00,weatherlink.com 1.10,2013-05-27 19:14:00,
2013-05-27 15:29:00,67.7,44.0,30.15,NW,316,0.0,4.0,43,0.00,,,0.00,weatherlink.com 1.10,2013-05-27 19:29:00,
2013-05-27 15:44:00,67.6,45.0,30.15,West,272,0.0,2.0,45,0.00,,,0.00,weatherlink.com 1.10,2013-05-27 19:44:00,
2013-05-27 15:59:00,67.8,46.0,30.15,WNW,288,4.0,4.0,45,0.00,,,0.00,weatherlink.com 1.10,2013-05-27 19:59:00,
2013-05-27 16:14:00,67.9,46.0,30.14,NNW,331,3.0,6.0,46,0.00,,,0.00,weatherlink.com 1.10,2013-05-27 20:14:00,
2013-05-27 16:29:00,67.6,46.0,30.14,WSW,252,1.0,7.0,46,0.00,,,0.00,weatherlink.com 1.10,2013-05-27 20:29:00,
2013-05-27 16:44:00,66.9,45.0,30.14,NNE,18,1.0,7.0,46,0.00,,,0.00,weatherlink.com 1.10,2013-05-27 20:44:00,
2013-05-27 16:59:00,66.4,47.0,30.13,WNW,303,0.0,6.0,50,0.00,,,0.00,weatherlink.com 1.10,2013-05-27 20:59:00,
2013-05-27 17:14:00,65.8,46.0,30.13,NW,311,1.0,5.0,50,0.00,,,0.00,weatherlink.com 1.10,2013-05-27 21:14:00,
2013-05-27 17:29:00,65.4,47.0,30.13,WSW,249,1.0,2.0,52,0.00,,,0.00,weatherlink.com 1.10,2013-05-27 21:29:00,
2013-05-27 17:44:00,64.9,48.0,30.14,SSW,207,1.0,5.0,55,0.00,,,0.00,weatherlink.com 1.10,2013-05-27 21:44:00,
2013-05-27 17:59:00,64.2,51.0,30.14,WNW,295,2.0,4.0,62,0.00,,,0.00,weatherlink.com 1.10,2013-05-27 21:59:00,
2013-05-27 18:14:00,63.8,51.0,30.13,WNW,297,2.0,4.0,64,0.00,,,0.00,weatherlink.com 1.10,2013-05-27 22:14:00,
2013-05-27 18:29:00,63.7,52.0,30.12,WNW,300,0.0,0.0,65,0.00,,,0.00,weatherlink.com 1.10,2013-05-27 22:29:00,
2013-05-27 18:44:00,63.8,50.0,30.12,WNW,300,0.0,1.0,62,0.00,,,0.00,weatherlink.com 1.10,2013-05-27 22:44:00,
2013-05-27 18:59:00,63.9,49.0,30.11,NW,308,1.0,4.0,59,0.00,,,0.00,weatherlink.com 1.10,2013-05-27 22:59:00,
2013-05-27 19:14:00,63.8,50.0,30.11,NW,313,1.0,2.0,61,0.00,,,0.00,weatherlink.com 1.10,2013-05-27 23:14:00,
2013-05-27 19:29:00,63.4,50.0,30.12,NW,313,0.0,2.0,62,0.00,,,0.00,weatherlink.com 1.10,2013-05-27 23:29:00,
2013-05-27 19:44:00,63.0,50.0,30.12,NW,313,0.0,0.0,63,0.00,,,0.00,weatherlink.com 1.10,2013-05-27 23:44:00,
2013-05-27 19:59:00,62.6,50.0,30.12,NW,313,0.0,0.0,64,0.00,,,0.00,weatherlink.com 1.10,2013-05-27 23:59:00,
2013-05-27 20:14:00,62.0,51.0,30.13,NW,313,0.0,0.0,68,0.00,,,0.00,weatherlink.com 1.10,2013-05-28 00:14:00,
2013-05-27 20:29:00,61.4,52.0,30.13,NW,313,0.0,0.0,70,0.00,,,0.00,weatherlink.com 1.10,2013-05-28 00:29:00,
2013-05-27 20:44:00,60.9,51.0,30.12,NW,313,0.0,0.0,71,0.00,,,0.00,weatherlink.com 1.10,2013-05-28 00:44:00,
2013-05-27 20:59:00,60.0,52.0,30.12,NW,313,0.0,0.0,74,0.00,,,0.00,weatherlink.com 1.10,2013-05-28 00:59:00,
2013-05-27 21:14:00,59.3,52.0,30.12,NW,313,0.0,0.0,77,0.00,,,0.00,weatherlink.com 1.10,2013-05-28 01:14:00,
2013-05-27 21:29:00,58.4,52.0,30.12,NW,313,0.0,0.0,79,0.00,,,0.00,weatherlink.com 1.10,2013-05-28 01:29:00,
2013-05-27 21:44:00,57.7,52.0,30.13,NW,313,0.0,0.0,81,0.00,,,0.00,weatherlink.com 1.10,2013-05-28 01:44:00,
2013-05-27 21:59:00,57.2,52.0,30.13,NW,313,0.0,0.0,82,0.00,,,0.00,weatherlink.com 1.10,2013-05-28 01:59:00,
2013-05-27 22:14:00,56.9,52.0,30.13,NW,313,0.0,0.0,84,0.00,,,0.00,weatherlink.com 1.10,2013-05-28 02:14:00,
2013-05-27 22:29:00,56.7,52.0,30.14,NW,313,0.0,0.0,85,0.00,,,0.00,weatherlink.com 1.10,2013-05-28 02:29:00,
2013-05-27 22:44:00,56.6,52.0,30.14,NW,313,0.0,0.0,85,0.00,,,0.00,weatherlink.com 1.10,2013-05-28 02:44:00,
2013-05-27 22:59:00,56.4,52.0,30.13,NW,313,0.0,0.0,85,0.00,,,0.00,weatherlink.com 1.10,2013-05-28 02:59:00,
2013-05-27 23:14:00,56.2,52.0,30.13,NW,313,0.0,0.0,85,0.00,,,0.00,weatherlink.com 1.10,2013-05-28 03:14:00,
2013-05-27 23:29:00,55.9,52.0,30.13,NW,313,0.0,0.0,86,0.00,,,0.00,weatherlink.com 1.10,2013-05-28 03:29:00,
2013-05-27 23:44:00,55.2,52.0,30.12,NW,313,0.0,0.0,88,0.00,,,0.00,weatherlink.com 1.10,2013-05-28 03:44:00,
2013-05-27 23:59:00,54.8,52.0,30.12,NW,313,0.0,0.0,89,0.00,,,0.00,weatherlink.com 1.10,2013-05-28 03:59:00,